User: anonymous   Login
Location: Nantong Television Tower
(32.0188°N, 120.8512°E)
Time: 22:59:02
(UTC+08:00)
Language:

ATLAS 3B CENTAUR R/B - Orbit

View from above orbital plane
View from above orbital plane
View from above satellite
View from above satellite

Ground track
Ground track

The orbit data is extracted from the following two-line orbital elements,

1 28118U 03057B   15061.16945895  .00076657  00000-0  14913-2 0  9996
2 28118 028.1630 325.3757 3695790 234.2220 324.3037 08.09967827215992
Epoch (UTC): 02 March 2015 04:04:01
Eccentricity: 0.3695790
inclination: 28.1630°
perigee height: 224 km
apogee height: 7966 km
right ascension of ascending node: 325.3757°
argument of perigee: 234.2220°
revolutions per day: 8.09967827
mean anomaly at epoch: 324.3037°
orbit number at epoch: 21599

The dashed part of the orbit path shows where the satellite is in the earth's shadow,  

DLR